Terminal Aerodrome Forecast
Issued by NWS

Home | Current Version | Previous Version | Text Only | Print | Product List | Glossary On
Versions: 1 2 3 4 5 6 7 8 9 10 11 12 13 14 15 16 17 18 19 20 21 22 23 24 25 26 27
000
FTUS46 KLOX 290500 CCA
TAFLAX
TAF COR
KLAX 290554Z 2906/3012 VRB03KT 3SM BR OVC003
     FM290900 10006KT 3SM BR OVC005
     FM291600 15006KT P6SM BKN012
     FM291900 22008KT P6SM SCT250
     FM300000 19008KT 5SM BR OVC015
     FM300800 11007KT P6SM OVC025=

USA.gov is the U.S. government's official web portal to all federal, state and local government web resources and services.